�������l�o���
Date,Time,MP-1(��Sv/h),MP-2(��Sv/h),MP-3(��Sv/h),MP-4(��Sv/h),MP-5(��Sv/h),MP-6(��Sv/h),MP-7(��Sv/h),MP-8(��Sv/h),����,����(m/s),���J
2023/11/27,00:00,0.524,0.797,0.493,1.000,0.716,0.317,0.566,0.530,��,4.5,��
2023/11/27,00:10,0.525,0.800,0.492,0.998,0.716,0.318,0.568,0.531,��,4.7,��
2023/11/27,00:20,0.523,0.797,0.493,1.000,0.715,0.317,0.569,0.529,��,4.5,��
2023/11/27,00:30,0.524,0.798,0.494,0.999,0.717,0.318,0.567,0.529,��,5.0,��
2023/11/27,00:40,0.525,0.797,0.494,0.998,0.716,0.318,0.566,0.530,��,5.6,��
2023/11/27,00:50,0.525,0.798,0.493,0.999,0.717,0.318,0.567,0.530,��쐼,4.8,��
2023/11/27,01:00,0.524,0.798,0.493,0.998,0.714,0.315,0.567,0.529,��쐼,4.5,��
2023/11/27,01:10,0.524,0.797,0.492,0.999,0.715,0.316,0.567,0.529,��쐼,4.8,��
2023/11/27,01:20,0.523,0.796,0.492,0.999,0.716,0.317,0.566,0.529,��,4.7,��
2023/11/27,01:30,0.524,0.796,0.492,0.998,0.715,0.317,0.568,0.529,��,4.9,��
2023/11/27,01:40,0.523,0.795,0.492,0.999,0.715,0.317,0.566,0.529,��,4.6,��
2023/11/27,01:50,0.524,0.797,0.491,0.999,0.717,0.317,0.567,0.529,��,4.6,��
2023/11/27,02:00,0.525,0.797,0.491,0.999,0.716,0.317,0.567,0.530,��,5.0,��
2023/11/27,02:10,0.523,0.797,0.492,0.996,0.717,0.318,0.566,0.528,��,4.8,��
2023/11/27,02:20,0.523,0.794,0.493,0.999,0.716,0.317,0.567,0.528,��,4.5,��
2023/11/27,02:30,0.525,0.796,0.492,0.998,0.715,0.317,0.568,0.528,��쐼,3.9,��
2023/11/27,02:40,0.524,0.797,0.491,0.997,0.715,0.318,0.567,0.528,��쐼,3.2,��
2023/11/27,02:50,0.522,0.796,0.491,0.998,0.715,0.316,0.567,0.529,��쐼,2.9,��
2023/11/27,03:00,0.524,0.796,0.490,0.999,0.714,0.317,0.568,0.528,��,3.6,��
2023/11/27,03:10,0.522,0.796,0.491,0.996,0.716,0.317,0.568,0.530,��,3.9,��
2023/11/27,03:20,0.523,0.795,0.492,0.998,0.715,0.316,0.565,0.529,��쐼,3.9,��
2023/11/27,03:30,0.525,0.795,0.491,0.998,0.715,0.317,0.567,0.529,��쐼,3.7,��
2023/11/27,03:40,0.522,0.796,0.492,0.998,0.714,0.318,0.567,0.529,��쐼,4.5,��
2023/11/27,03:50,0.525,0.795,0.491,0.998,0.713,0.317,0.568,0.529,��쐼,4.9,��
2023/11/27,04:00,0.524,0.796,0.492,0.997,0.713,0.316,0.566,0.528,��쐼,4.7,��
2023/11/27,04:10,0.522,0.795,0.492,0.996,0.714,0.317,0.566,0.531,��쐼,5.4,��
2023/11/27,04:20,0.522,0.796,0.492,0.998,0.715,0.317,0.567,0.528,��쐼,4.9,��
2023/11/27,04:30,0.524,0.795,0.491,0.998,0.713,0.316,0.567,0.530,��쐼,5.2,��
2023/11/27,04:40,0.522,0.798,0.492,0.999,0.713,0.316,0.566,0.529,��쐼,5.3,��
2023/11/27,04:50,0.523,0.796,0.492,1.000,0.715,0.316,0.567,0.527,��쐼,5.2,��
2023/11/27,05:00,0.523,0.794,0.492,0.999,0.712,0.316,0.567,0.528,��쐼,5.1,��
2023/11/27,05:10,0.523,0.795,0.492,0.996,0.714,0.316,0.567,0.530,�쐼,5.1,��
2023/11/27,05:20,0.524,0.795,0.492,0.998,0.713,0.316,0.568,0.529,��쐼,5.3,��
2023/11/27,05:30,0.524,0.795,0.491,0.999,0.714,0.318,0.567,0.528,�쐼,4.7,��
2023/11/27,05:40,0.521,0.797,0.491,0.996,0.714,0.317,0.567,0.529,�쐼,5.6,��
2023/11/27,05:50,0.524,0.796,0.491,0.996,0.715,0.316,0.567,0.531,�쐼,5.7,��
2023/11/27,06:00,0.523,0.795,0.491,0.997,0.714,0.316,0.567,0.528,�쐼,5.7,��
2023/11/27,06:10,0.523,0.794,0.492,0.999,0.714,0.316,0.567,0.529,�쐼,5.9,��
2023/11/27,06:20,0.521,0.795,0.492,0.998,0.714,0.316,0.567,0.527,��쐼,5.9,��
2023/11/27,06:30,0.523,0.795,0.493,0.998,0.716,0.317,0.567,0.529,�쐼,6.4,��
2023/11/27,06:40,0.524,0.796,0.492,0.998,0.716,0.317,0.566,0.529,�쐼,5.3,��
2023/11/27,06:50,0.524,0.795,0.493,0.995,0.715,0.317,0.567,0.529,�쐼,5.8,��
2023/11/27,07:00,0.524,0.798,0.493,1.000,0.716,0.316,0.567,0.529,��쐼,5.3,��
2023/11/27,07:10,0.523,0.794,0.492,0.998,0.713,0.316,0.567,0.530,��쐼,5.8,��
2023/11/27,07:20,0.523,0.796,0.492,0.998,0.715,0.317,0.567,0.529,��쐼,4.9,��
2023/11/27,07:30,0.524,0.796,0.491,0.997,0.715,0.318,0.568,0.528,��쐼,3.8,��
2023/11/27,07:40,0.525,0.795,0.491,0.997,0.714,0.317,0.567,0.529,��쐼,4.0,��
2023/11/27,07:50,0.522,0.796,0.491,0.998,0.714,0.316,0.567,0.529,��쐼,5.8,��
2023/11/27,08:00,0.522,0.796,0.492,1.000,0.713,0.318,0.568,0.528,��쐼,4.9,��
2023/11/27,08:10,0.524,0.796,0.492,0.998,0.716,0.316,0.569,0.529,��쐼,4.7,��
2023/11/27,08:20,0.526,0.796,0.490,1.000,0.712,0.317,0.570,0.530,��쐼,4.1,��
2023/11/27,08:30,0.525,0.795,0.491,0.997,0.715,0.317,0.570,0.529,��쐼,4.9,��
2023/11/27,08:40,0.523,0.795,0.492,0.997,0.713,0.316,0.570,0.529,��쐼,5.1,��
2023/11/27,08:50,0.524,0.796,0.493,1.001,0.712,0.317,0.568,0.530,��쐼,4.6,��
2023/11/27,09:00,0.525,0.795,0.493,1.000,0.712,0.317,0.567,0.529,��쐼,4.2,��
2023/11/27,09:10,0.523,0.793,0.492,0.997,0.715,0.318,0.569,0.529,�쐼,3.3,��
2023/11/27,09:20,0.524,0.795,0.492,0.999,0.713,0.317,0.567,0.531,��쐼,3.5,��
2023/11/27,09:30,0.524,0.794,0.493,1.000,0.715,0.317,0.567,0.529,��쐼,3.5,��
2023/11/27,09:40,0.524,0.795,0.492,0.998,0.713,0.317,0.569,0.531,��,3.9,��
2023/11/27,09:50,0.524,0.795,0.494,0.997,0.715,0.317,0.565,0.530,��쐼,4.6,��
2023/11/27,10:00,0.522,0.795,0.493,0.997,0.715,0.318,0.565,0.531,��,3.1,��
2023/11/27,10:10,0.523,0.795,0.495,0.999,0.713,0.318,0.566,0.530,��,4.5,��
2023/11/27,10:20,0.522,0.794,0.494,0.997,0.713,0.318,0.567,0.530,��,5.1,��
2023/11/27,10:30,0.523,0.795,0.494,1.000,0.713,0.316,0.568,0.530,��쓌,4.1,��
2023/11/27,10:40,0.523,0.793,0.492,0.998,0.714,0.316,0.568,0.531,��쓌,4.8,��
2023/11/27,10:50,0.524,0.792,0.491,1.000,0.713,0.315,0.567,0.530,��쓌,5.1,��
2023/11/27,11:00,0.525,0.794,0.493,1.000,0.712,0.318,0.567,0.529,��쓌,5.4,��
2023/11/27,11:10,0.525,0.793,0.492,0.998,0.711,0.315,0.567,0.531,��,5.5,��
2023/11/27,11:20,0.522,0.793,0.492,1.000,0.713,0.316,0.568,0.531,��,4.0,��
2023/11/27,11:30,0.525,0.795,0.491,0.997,0.713,0.316,0.568,0.530,��쓌,5.1,��
2023/11/27,11:40,0.523,0.795,0.491,0.998,0.713,0.317,0.569,0.529,��쓌,6.0,��
2023/11/27,11:50,0.525,0.795,0.491,1.001,0.715,0.319,0.569,0.529,��쓌,5.7,��
2023/11/27,12:00,0.524,0.794,0.494,0.998,0.714,0.317,0.566,0.529,��쓌,6.4,��
2023/11/27,12:10,0.523,0.797,0.493,0.998,0.715,0.317,0.567,0.528,��쓌,7.2,��
2023/11/27,12:20,0.523,0.797,0.493,0.998,0.715,0.318,0.567,0.528,��쓌,7.5,��
2023/11/27,12:30,0.524,0.794,0.491,0.998,0.715,0.316,0.568,0.525,��쓌,8.0,��
2023/11/27,12:40,0.524,0.796,0.492,0.998,0.716,0.317,0.568,0.528,��쓌,8.7,��
2023/11/27,12:50,0.525,0.794,0.490,1.000,0.714,0.317,0.568,0.528,��쓌,7.7,��
2023/11/27,13:00,0.524,0.797,0.492,1.001,0.714,0.317,0.567,0.527,��쓌,6.5,��
2023/11/27,13:10,0.525,0.792,0.491,0.999,0.715,0.316,0.568,0.528,��쓌,7.7,��
2023/11/27,13:20,0.525,0.796,0.494,0.998,0.713,0.319,0.567,0.527,��쓌,7.1,��
2023/11/27,13:30,0.525,0.796,0.491,0.999,0.715,0.316,0.567,0.529,��쓌,7.7,��
2023/11/27,13:40,0.524,0.793,0.492,1.000,0.714,0.317,0.567,0.529,��쓌,7.2,��
2023/11/27,13:50,0.523,0.795,0.492,0.998,0.714,0.317,0.569,0.528,��쓌,6.8,��
2023/11/27,14:00,0.523,0.793,0.492,0.999,0.715,0.316,0.568,0.527,��쓌,6.5,��
2023/11/27,14:10,0.523,0.796,0.494,1.000,0.714,0.315,0.569,0.528,��쓌,5.9,��
2023/11/27,14:20,0.526,0.794,0.492,0.999,0.714,0.315,0.568,0.528,��쓌,6.3,��
2023/11/27,14:30,0.524,0.794,0.492,1.000,0.716,0.316,0.569,0.528,��쓌,5.7,��
2023/11/27,14:40,0.524,0.796,0.492,1.000,0.714,0.318,0.570,0.530,��쓌,6.1,��
2023/11/27,14:50,0.524,0.794,0.491,0.998,0.713,0.318,0.569,0.527,��쓌,6.3,��
2023/11/27,15:00,0.524,0.794,0.491,1.002,0.716,0.317,0.569,0.528,��쓌,6.2,��
2023/11/27,15:10,0.524,0.796,0.492,0.999,0.714,0.316,0.567,0.527,��,5.2,��
2023/11/27,15:20,0.523,0.799,0.491,0.999,0.715,0.318,0.568,0.529,��쓌,4.2,��
2023/11/27,15:30,0.522,0.798,0.493,1.001,0.715,0.319,0.570,0.530,��쓌,5.7,��
2023/11/27,15:40,0.522,0.799,0.493,1.000,0.715,0.317,0.569,0.530,��쓌,4.5,��
2023/11/27,15:50,0.524,0.797,0.492,1.000,0.713,0.318,0.570,0.530,��쓌,3.7,��
2023/11/27,16:00,0.524,0.796,0.493,0.999,0.715,0.317,0.569,0.530,��,3.4,��
2023/11/27,16:10,0.523,0.797,0.494,1.000,0.716,0.318,0.569,0.532,��,4.0,��
2023/11/27,16:20,0.525,0.800,0.495,0.998,0.714,0.318,0.568,0.530,��,3.9,��
2023/11/27,16:30,0.524,0.799,0.495,1.000,0.713,0.319,0.570,0.531,��,4.2,��
2023/11/27,16:40,0.524,0.799,0.495,0.998,0.714,0.320,0.571,0.530,��,4.5,��
2023/11/27,16:50,0.526,0.799,0.494,0.999,0.714,0.320,0.570,0.531,��,4.6,��
2023/11/27,17:00,0.526,0.799,0.495,0.999,0.717,0.318,0.570,0.531,��,4.2,��
2023/11/27,17:10,0.524,0.800,0.493,1.000,0.715,0.318,0.569,0.531,��,4.6,��
2023/11/27,17:20,0.526,0.800,0.493,0.999,0.718,0.318,0.569,0.529,��,4.2,��
2023/11/27,17:30,0.526,0.798,0.493,1.000,0.716,0.318,0.568,0.531,��,4.4,��
2023/11/27,17:40,0.526,0.798,0.493,0.999,0.716,0.318,0.569,0.530,��,5.4,��
2023/11/27,17:50,0.525,0.799,0.493,0.999,0.714,0.319,0.569,0.529,��쐼,4.8,��
2023/11/27,18:00,0.525,0.798,0.493,1.001,0.717,0.318,0.568,0.527,��쐼,4.4,��
2023/11/27,18:10,0.524,0.796,0.494,1.000,0.715,0.319,0.570,0.529,��쐼,5.0,��
2023/11/27,18:20,0.526,0.797,0.494,1.001,0.717,0.319,0.570,0.530,��쐼,5.6,��
2023/11/27,18:30,0.526,0.798,0.494,0.999,0.717,0.318,0.569,0.530,��쐼,5.3,��
2023/11/27,18:40,0.525,0.798,0.494,1.000,0.717,0.318,0.569,0.530,��쐼,4.8,��
2023/11/27,18:50,0.525,0.798,0.494,0.998,0.717,0.317,0.568,0.531,��쐼,3.4,��
2023/11/27,19:00,0.526,0.799,0.495,1.002,0.717,0.319,0.569,0.529,���쐼,2.3,��
2023/11/27,19:10,0.526,0.798,0.493,0.998,0.716,0.318,0.570,0.530,��,2.3,��
2023/11/27,19:20,0.527,0.797,0.494,0.999,0.717,0.319,0.570,0.528,�k��,2.6,��
2023/11/27,19:30,0.526,0.799,0.495,1.001,0.716,0.318,0.567,0.530,�k�k��,2.8,��
2023/11/27,19:40,0.527,0.799,0.493,0.999,0.719,0.317,0.570,0.530,�k��,3.4,��
2023/11/27,19:50,0.525,0.798,0.494,0.999,0.716,0.317,0.568,0.530,�k��,3.4,��
2023/11/27,20:00,0.525,0.798,0.494,1.001,0.718,0.317,0.569,0.530,�k��,3.7,��
2023/11/27,20:10,0.526,0.800,0.494,1.001,0.717,0.319,0.569,0.531,�k��,3.6,��
2023/11/27,20:20,0.526,0.800,0.494,0.998,0.718,0.319,0.568,0.530,�k��,2.9,��
2023/11/27,20:30,0.525,0.797,0.494,1.001,0.718,0.318,0.569,0.531,���k��,2.6,��
2023/11/27,20:40,0.525,0.796,0.495,1.001,0.719,0.318,0.568,0.531,��,2.0,��
2023/11/27,20:50,0.525,0.798,0.493,0.999,0.719,0.317,0.569,0.529,��,2.3,��
2023/11/27,21:00,0.525,0.798,0.494,0.998,0.719,0.319,0.570,0.530,�쐼,1.7,��
2023/11/27,21:10,0.525,0.796,0.493,1.001,0.717,0.317,0.569,0.531,��쐼,2.2,��
2023/11/27,21:20,0.526,0.797,0.493,1.000,0.717,0.318,0.570,0.528,�쐼,2.6,��
2023/11/27,21:30,0.525,0.797,0.495,1.000,0.716,0.317,0.569,0.529,�쐼,3.9,��
2023/11/27,21:40,0.525,0.799,0.492,0.997,0.718,0.318,0.569,0.531,�쐼,4.3,��
2023/11/27,21:50,0.525,0.798,0.494,0.997,0.718,0.318,0.569,0.530,�쐼,3.9,��
2023/11/27,22:00,0.525,0.798,0.492,1.000,0.718,0.318,0.568,0.529,�쐼,2.5,��
2023/11/27,22:10,0.526,0.798,0.494,0.999,0.718,0.318,0.567,0.530,�쐼,3.1,��
2023/11/27,22:20,0.525,0.799,0.494,1.001,0.719,0.318,0.570,0.530,�쐼,2.6,��
2023/11/27,22:30,0.526,0.797,0.493,1.000,0.716,0.318,0.569,0.529,���쐼,1.2,��
2023/11/27,22:40,0.525,0.796,0.494,1.001,0.717,0.317,0.568,0.530,�쐼,1.1,��
2023/11/27,22:50,0.525,0.798,0.493,0.999,0.718,0.318,0.569,0.529,-,CALM,��
2023/11/27,23:00,0.525,0.796,0.494,1.000,0.717,0.317,0.569,0.531,-,CALM,��
2023/11/27,23:10,0.526,0.797,0.493,1.001,0.717,0.318,0.569,0.531,-,CALM,��
2023/11/27,23:20,0.525,0.798,0.492,0.999,0.716,0.319,0.567,0.530,-,CALM,��
2023/11/27,23:30,0.525,0.798,0.495,0.999,0.717,0.318,0.568,0.529,��쓌,0.6,��
2023/11/27,23:40,0.525,0.797,0.493,1.001,0.719,0.319,0.566,0.530,��,0.8,��
2023/11/27,23:50,0.525,0.798,0.494,0.999,0.717,0.318,0.568,0.530,��쓌,1.5,��
